Flagstaff, AZ

10:18 PM MST on March 25, 2017 (GMT -0700)
Flagstaff Pulliam

Weather History for KFLG - March, 2011

Change the Weather History Date:

Tuesday, March 8, 2011

  Actual Average Record
Temperature  
Mean Temperature 35 °F 36 °F  
Max Temperature 47 °F 49 °F 67 °F (1989)
Min Temperature 22 °F 23 °F -4 °F (1964)
Degree Days  
Heating Degree Days 30 29  
Month to date heating degree days 238 240  
Since 1 July heating degree days 4771 5079  
Cooling Degree Days 0 0  
Month to date cooling degree days 0 0  
Year to date cooling degree days 0 0  
Moisture  
Dew Point 15 °F    
Average Humidity 45    
Maximum Humidity 69    
Minimum Humidity 20    
Precipitation  
Precipitation T in 0.07 in 1.27 in (1918)
Month to date precipitation 0.13 0.61  
Year to date precipitation 3.44 4.82  
Snow  
Snow T in 0.70 in 13.80 in (1992)
Month to date snowfall T 6.0  
Since 1 July snowfall 64.0 79.2  
Snow Depth 0.00 in    
Sea Level Pressure  
Sea Level Pressure 29.98 in    
Wind  
Wind Speed 4 mph (WNW)    
Max Wind Speed 14 mph    
Max Gust Speed 22 mph    
Visibility 9 miles    
Events Snow    
T = Trace of Precipitation, MM = Missing Value Source: NWS Daily Summary

Daily Weather History Graph

Daily Weather History Graph

Search for Another Location

Airport or City:

Trip Planner

Search our weather history database for the weather conditions in past years. The results will help you decide how hot, cold, wet, or windy it might be!

Date:

Astronomy

Mar. 08, 2011 Rise Set
Actual Time 6:47 AM MST 6:28 PM MST
Civil Twilight 6:21 AM MST 6:53 PM MST
Nautical Twilight 5:52 AM MST 7:22 PM MST
Astronomical Twilight 5:23 AM MST 7:52 PM MST
Moon 8:19 AM MST (3/8) 10:18 PM MST (3/8)
Length of Visible Light 12h 31m
Length of Day
11h 41m
Waxing Crescent, 13% of the Moon is Illuminated
Mar 8
Waxing Crescent
Mar 12
First Quarter
Mar 19
Full
Mar 26
Last Quarter
Apr 3
New

Hourly Weather History & Observations

Time (MST) Temp. Windchill Dew Point Humidity Pressure Visibility Wind Dir Wind Speed Gust Speed Precip Events Conditions
12:21 AM 30.2 °F 21.9 °F 26.6 °F 86% 29.79 in 1.8 mi West 9.2 mph 18.4 mph 0.00 in Snow Light Snow
12:36 AM 30.2 °F 21.3 °F 26.6 °F 86% 29.80 in 2.5 mi West 10.4 mph 19.6 mph 0.00 in Snow Light Snow
12:57 AM 30.0 °F 23.2 °F 26.1 °F 85% 29.74 in 5.0 mi WNW 6.9 mph 19.6 mph 0.00 in Snow Light Snow
1:57 AM 30.0 °F 23.2 °F 21.0 °F 69% 29.78 in 10.0 mi Variable 6.9 mph - 0.00 in   Scattered Clouds
2:57 AM 28.0 °F 19.3 °F 19.9 °F 72% 29.77 in 10.0 mi WSW 9.2 mph 19.6 mph N/A   Clear
3:57 AM 27.0 °F - 17.1 °F 66% 29.80 in 10.0 mi Calm Calm - N/A   Partly Cloudy
4:57 AM 25.0 °F 14.2 °F 14.0 °F 63% 29.81 in 10.0 mi West 11.5 mph 16.1 mph N/A   Clear
5:57 AM 24.1 °F 17.0 °F 14.0 °F 65% 29.84 in 10.0 mi WSW 5.8 mph - N/A   Clear
6:57 AM 23.0 °F 18.4 °F 14.0 °F 68% 29.88 in 10.0 mi West 3.5 mph - N/A   Clear
7:57 AM 26.1 °F - 14.0 °F 60% 29.91 in 10.0 mi Calm Calm - N/A   Clear
8:57 AM 30.0 °F 26.5 °F 14.0 °F 51% 29.93 in 10.0 mi SW 3.5 mph - N/A   Clear
9:57 AM 33.1 °F - 12.9 °F 43% 29.95 in 10.0 mi Calm Calm - N/A   Clear
10:57 AM 37.0 °F 34.5 °F 10.0 °F 33% 29.95 in 10.0 mi Variable 3.5 mph - N/A   Clear
11:57 AM 39.9 °F 36.7 °F 10.9 °F 31% 29.97 in 10.0 mi ENE 4.6 mph - N/A   Clear
12:57 PM 42.1 °F 39.2 °F 10.9 °F 28% 29.99 in 10.0 mi Variable 4.6 mph - N/A   Clear
1:57 PM 45.0 °F 41.8 °F 14.0 °F 29% 29.98 in 10.0 mi NNE 5.8 mph - N/A   Clear
2:57 PM 45.0 °F 41.8 °F 12.0 °F 26% 29.98 in 10.0 mi Variable 5.8 mph - N/A   Clear
3:57 PM 46.0 °F 41.0 °F 12.9 °F 26% 30.02 in 10.0 mi ENE 10.4 mph - N/A   Clear
4:57 PM 45.0 °F 41.2 °F 6.1 °F 20% 30.05 in 10.0 mi ENE 6.9 mph - N/A   Clear
5:57 PM 43.0 °F 38.8 °F 7.0 °F 23% 30.10 in 10.0 mi East 6.9 mph - N/A   Clear
6:57 PM 36.0 °F 32.1 °F 12.0 °F 37% 30.17 in 10.0 mi East 4.6 mph - N/A   Clear
7:57 PM 28.9 °F - 12.9 °F 51% 30.21 in 10.0 mi Calm Calm - N/A   Clear
8:57 PM 27.0 °F - 15.1 °F 61% 30.23 in 10.0 mi Calm Calm - N/A   Clear
9:57 PM 26.1 °F - 14.0 °F 60% 30.24 in 10.0 mi Calm Calm - N/A   Clear
10:57 PM 24.1 °F - 16.0 °F 71% 30.25 in 10.0 mi Calm Calm - N/A   Clear
11:57 PM 21.9 °F - 15.1 °F 75% 30.25 in 10.0 mi Calm Calm - N/A   Clear